一网星座-0645星 (ONEWEB-0645)

导读

ONEWEB-0645是英国OneWeb公司打造的低轨通信卫星,于2023年3月9日发射入轨,属于第二代OneWeb卫星星座。该卫星运行在1200公里近地轨道,设计寿命为7年,将服务于OneWeb的全球互联网接入网络,为全球偏远地区、基础设施薄弱区域和移动平台提供高速宽带服务,是OneWeb卫星通信网络建设的重要组成部分。

基本信息
目录编号:
55809
目录名称:
ONEWEB-0645
国际标识:
2023-029P
轨道中心:
EARTH
卫星名称:
一网星座-0645星
卫星全名:
一网星座-0645星 (ONEWEB-0645)
卫星状态:
在轨 (已飞行1283 天)
发射日期:
2023-03-09 UTC
国别 :
英国 (GB)
星等 :
--
该卫星已列入 空间交会检测服务 Space Conjunction Data Service (SCDS) ,当前飞行风险评估等级: 无高风险
轨道信息
数据来源 国际轨道数据 AOE轨道数据
星历时间 2026-09-11T19:18:11+0800
16小时前
查看轨道信息
2026-09-09T22:00:00+0800
2天前
查看轨道信息
半长轴 7563.908km 7563.911km
偏心率 0.0002218 0.0002224
轨道倾角 87.912° 87.913°
近地点辐角 86.380° 75.340°
升交点赤经 287.785° 288.162°
平近点角 273.759° 321.773°
近地点 1184.093km 1184.091km
远地点 1187.449km 1187.457km
周期 109.114分钟 109.114分钟
每日圈数 13.197251 13.197241
详细信息
平衡模式:
三轴稳定
覆盖范围:
全球
运营商:
一网卫星公司
运营商所在国:
英国
制造商(研发单位):
一网卫星公司
制造商所在国:
英国
使用方式:
暂无
卫星简介
OneWeb卫星网络由648颗重约125公斤的微型卫星组成,运行在1200公里的轨道上。 每颗卫星都能够提供至少每秒8千兆位的吞吐量,以使用其高吞吐量的Ku频段有效载荷为家庭和移动平台提供互联网接入。该卫星仍在工作。
2D轨道图
3D轨道图
轨道高度分析图
轨道倾角分析图
轨道综合分析图
查看轨道综合分析图
与全量物体交会距离演化趋势
与全量物体交会风险概率演化趋势